Temp
56 49 45 50 54 55 55 52 50 56 63 61 60 61 62 68 65 66 65 65 67 69 76 72 70 70 68 68 66 66 65 66 65 64 64 63 65 65 66 65 68 69 70 69
50 46 55 59 58 57 55 52 51 57 63 60 59 58 65 68 66 69 70 66 66 66 68 70 68 68 68 66 66 66 66 67 67 64 63 64 63 63 66 65 69 69 69 70
49 54 61 59 57 54 53 51 51 52 59 62 57 55 60 65 70 72 70 69 66 67 67 65 67 67 67 66 65 65 67 68 67 65 66 66 65 66 67 64 64 65 69 70
53 60 59 56 54 56 48 59 59 57 54 43 58 44 52 61 64 66 67 65 66 67 66 65 68 66 68 69 69 67 68 68 66 67 67 67 65 65 66 66 66 66 67 68
51 55 55 54 55 60 53 62 59 59 55 47 54 44 50 57 57 61 65 66 65 67 68 64 68 70 71 71 69 69 68 66 68 68 68 66 65 64 65 64 64 63 64 67
56 65 61 59 63 63 64 59 58 58 54 39 50 47 46 51 60 62 65 69 68 68 65 66 70 72 66 66 67 68 65 63 66 67 67 67 65 63 63 61 61 62 62 63
52 53 62 65 56 62 59 52 39 37 34 37 51 46 48 57 63 65 63 65 68 68 63 65 68 65 65 64 63 63 62 59 60 61 60 61 60 60 59 59 59 59 59 60
41 39 55 63 58 54 55 53 36 29 30 37 52 42 51 63 65 65 68 68 64 62 65 66 65 65 65 63 61 61 61 59 61 60 59 59 58 59 57 57 57 58 58 58
41 42 62 63 64 63 55 49 55 43 44 41 44 51 59 61 59 61 62 62 58 62 64 63 63 63 62 60 59 60 59 58 59 58 57 57 57 57 57 57 57 56 57 61
46 41 56 60 65 65 60 60 46 45 34 31 41 43 43 50 52 54 52 52 56 60 61 62 62 61 61 60 59 58 58 58 58 58 58 58 57 57 57 57 56 56 56 58
48 42 47 55 51 53 54 53 52 48 42 32 32 38 50 50 52 50 51 53 54 55 56 57 59 60 59 58 58 57 58 58 57 58 57 57 56 57 56 56 56 56 56 56
48 43 36 43 54 57 51 49 49 43 37 41 42 39 53 54 54 51 52 54 55 56 57 57 58 57 59 59 59 59 59 58 56 56 56 55 55 55 54 54 55 55 55 56
49 41 33 39 47 54 48 52 52 46 42 39 34 37 55 57 51 53 51 54 55 55 55 56 57 58 60 60 59 58 57 55 56 56 54 53 53 53 52 53 54 54 54 54
47 44 39 34 39 47 45 51 52 49 36 38 40 42 48 50 50 52 52 54 55 54 53 54 56 57 58 58 57 56 56 55 55 55 53 52 51 51 51 51 51 52 52 52
44 39 43 47 52 53 52 54 54 48 47 42 43 46 49 50 49 50 52 54 53 53 55 56 56 56 55 53 54 54 54 54 53 53 52 50 50 50 49 49 48 49 49 49
45 40 47 45 49 48 50 54 53 55 52 50 48 45 51 52 52 51 53 55 55 57 56 56 56 54 51 51 50 51 51 51 51 50 49 50 49 49 47 47 46 46 46 46
42 41 39 36 43 46 42 48 51 53 54 52 45 47 52 51 51 52 54 57 54 54 54 52 49 48 46 46 48 46 47 48 48 47 48 48 47 47 45 45 45 44 43 43
43 42 37 34 38 31 45 51 54 52 52 52 51 50 51 50 51 53 54 52 52 51 48 46 45 44 44 44 44 45 46 45 45 44 45 45 44 43 43 43 42 41 42 44
47 43 36 33 33 42 48 47 53 50 48 56 49 50 50 51 50 49 53 51 48 46 46 45 46 43 42 42 43 43 42 42 42 42 42 43 43 41 41 41 42 46 47 47
44 43 38 35 32 31 45 51 54 55 42 56 53 51 51 54 40 43 51 51 48 49 48 46 45 42 40 39 40 38 37 37 37 40 41 41 41 39 41 42 43 45 46 46
40 41 37 36 34 42 50 51 56 40 41 54 54 53 50 43 46 48 51 49 49 48 47 44 41 38 37 37 37 37 38 37 37 41 41 39 39 39 43 44 45 45 44 45
38 36 36 38 33 33 56 54 47 47 50 52 51 50 48 48 48 48 48 47 47 45 45 43 39 37 36 36 37 36 37 38 38 39 40 41 41 43 44 43 44 44 44 43
38 43 39 41 40 47 53 50 53 54 51 51 51 52 52 50 48 48 46 46 46 45 43 42 39 37 36 36 36 34 38 40 39 39 36 38 40 41 42 41 41 41 42 42
47 51 44 45 47 48 50 53 54 55 52 53 53 52 51 47 48 46 46 45 44 44 42 41 39 37 35 36 37 34 38 41 39 37 37 38 38 39 41 41 41 40 40 40
47 49 46 44 48 50 52 52 53 52 53 52 52 51 49 48 46 46 44 43 43 41 41 40 38 37 36 36 36 36 38 41 37 36 36 35 37 38 39 39 39 40 42 40
50 47 43 41 49 49 49 52 54 51 50 51 49 47 48 47 45 45 42 42 42 40 40 39 38 37 38 38 37 37 38 40 37 35 34 35 36 37 38 37 38 41 40 40
MSLP
1004.18 1004.64 1003.24 1004.17 1004.88 1005.10 1004.92 1004.58 1004.20 1003.65 1003.34 1003.25 1002.69 1002.24 1002.26 1001.81 1001.93 1001.99 1002.11 1002.48 1002.39 1002.37 1001.87 1002.42 1003.84 1004.60 1005.56 1006.64 1007.38 1007.77 1008.24 1008.76 1009.46 1010.29 1010.70 1011.17 1010.95 1010.88 1010.65 1010.46 1010.33 1010.34 1010.58 1011.30
1003.54 1002.20 1003.10 1003.52 1003.86 1004.16 1003.94 1003.87 1003.50 1003.42 1002.85 1003.02 1002.70 1002.16 1001.43 1001.26 1001.24 1001.24 1001.34 1001.75 1001.94 1001.84 1002.04 1002.66 1003.77 1004.58 1005.07 1005.80 1006.84 1007.35 1007.19 1007.71 1008.25 1009.07 1009.69 1009.95 1010.27 1010.56 1010.34 1010.09 1010.14 1009.84 1010.12 1010.25
1001.64 1001.22 1002.29 1002.45 1002.58 1002.82 1002.79 1003.02 1003.39 1003.27 1003.08 1002.81 1002.71 1002.09 1001.38 1000.61 1000.38 1000.29 1000.45 1000.52 1000.93 1001.26 1001.80 1002.65 1003.69 1004.14 1004.86 1005.66 1006.19 1006.34 1006.51 1007.16 1007.96 1008.49 1008.90 1009.26 1009.59 1009.68 1009.92 1010.29 1010.30 1010.34 1010.66 1010.80
1001.36 1001.34 1000.98 1001.40 1001.48 1001.96 1001.94 1002.50 1002.95 1002.65 1003.55 1003.34 1002.34 1002.18 1000.75 1000.07 999.81 999.90 1000.03 1000.41 1000.58 1000.95 1001.54 1002.25 1003.23 1003.97 1004.30 1004.64 1005.45 1005.87 1006.54 1007.05 1007.86 1008.08 1008.48 1008.95 1009.08 1009.41 1009.21 1009.35 1010.08 1010.59 1010.71 1011.00
999.42 1000.10 1000.48 1000.39 999.87 1001.14 1000.82 1001.92 1002.39 1002.71 1003.06 1003.33 1002.05 1002.80 1000.44 999.78 999.77 999.83 999.82 1000.03 1000.25 1000.39 1000.97 1002.06 1002.72 1003.16 1003.68 1004.34 1005.20 1005.91 1006.70 1007.20 1007.55 1007.92 1008.16 1008.92 1009.20 1009.64 1009.73 1009.99 1010.34 1010.89 1010.93 1011.01
999.63 999.27 999.72 999.19 999.94 1000.43 1001.29 1001.76 1002.38 1002.92 1003.27 1003.34 1002.38 1002.56 1001.18 1000.16 999.56 999.26 998.99 999.53 999.98 1000.37 1000.95 1001.83 1002.42 1003.01 1004.29 1005.06 1005.56 1006.17 1006.83 1007.23 1007.45 1007.85 1008.49 1008.79 1009.09 1009.62 1010.35 1010.40 1010.55 1011.05 1011.21 1011.56
999.41 999.23 998.75 999.02 999.62 999.86 1000.62 1001.68 1002.78 1003.37 1003.54 1002.82 1002.10 1002.34 1000.97 999.68 999.20 999.12 999.06 999.29 999.63 1000.02 1000.90 1001.89 1003.12 1004.09 1004.88 1005.61 1006.16 1006.80 1007.23 1008.13 1008.14 1008.53 1008.91 1009.05 1009.54 1009.91 1010.48 1010.85 1011.32 1011.86 1011.81 1011.93
999.73 999.38 998.10 997.66 997.85 998.55 999.34 1000.50 1001.58 1002.45 1002.86 1002.97 1001.70 1001.39 1000.60 999.73 999.35 999.62 999.12 998.76 999.95 1000.44 1001.15 1002.25 1003.34 1004.14 1005.26 1006.08 1006.85 1007.59 1008.15 1008.70 1008.91 1009.31 1009.64 1009.81 1010.13 1010.25 1010.80 1010.87 1010.97 1011.50 1011.94 1012.34
999.45 998.69 997.35 997.38 997.63 998.17 998.32 999.49 1000.43 1001.84 1002.30 1002.52 1002.30 1001.34 1000.56 1000.67 1001.08 1000.71 1000.84 1001.49 1001.81 1001.49 1002.09 1002.86 1004.13 1005.03 1006.24 1007.05 1007.69 1008.03 1008.79 1009.48 1009.66 1010.02 1010.30 1010.80 1011.00 1011.25 1011.70 1011.53 1011.41 1011.81 1012.07 1012.04
1000.03 998.92 997.65 997.00 997.33 997.36 997.76 998.60 1000.05 1001.20 1002.26 1003.31 1002.96 1002.71 1003.02 1003.02 1003.14 1003.31 1003.40 1003.68 1003.95 1004.10 1004.55 1004.47 1004.95 1006.00 1007.31 1008.40 1009.17 1009.47 1009.84 1010.07 1010.29 1010.60 1010.88 1011.43 1011.68 1011.92 1011.96 1011.97 1012.21 1012.26 1012.25 1012.17
1000.58 1000.05 998.85 998.09 997.78 997.58 997.71 998.30 999.23 1000.65 1002.14 1003.27 1003.76 1003.77 1003.63 1004.11 1004.40 1004.83 1005.30 1005.06 1005.74 1006.28 1006.89 1007.46 1007.45 1007.82 1008.64 1009.05 1009.35 1009.92 1010.35 1010.68 1010.84 1011.17 1011.56 1011.89 1012.06 1012.10 1012.18 1012.25 1012.46 1012.52 1012.55 1012.44
1000.77 1000.48 999.65 999.11 998.44 998.07 997.71 998.18 998.78 1000.02 1002.31 1003.05 1003.45 1003.91 1003.77 1004.58 1004.69 1004.93 1006.24 1006.59 1006.68 1007.31 1008.43 1009.16 1009.40 1008.88 1008.57 1009.26 1009.79 1010.34 1010.92 1011.23 1011.72 1011.98 1012.22 1012.57 1012.57 1012.68 1012.94 1012.95 1012.75 1012.64 1012.54 1012.34
1000.43 1000.59 1000.14 999.80 999.11 998.21 998.13 998.15 999.01 999.89 1001.57 1003.14 1003.61 1004.41 1003.85 1005.05 1005.56 1005.58 1005.90 1007.32 1007.65 1007.84 1009.05 1010.17 1011.01 1010.91 1010.08 1009.97 1010.50 1011.18 1011.79 1012.11 1012.43 1012.45 1012.69 1012.97 1013.08 1013.06 1013.10 1012.90 1012.63 1012.52 1012.44 1012.22
1000.84 1000.35 999.97 999.20 998.53 998.37 998.34 998.39 999.08 999.80 1001.31 1003.05 1003.49 1004.25 1004.61 1005.39 1005.86 1006.36 1006.91 1007.23 1008.32 1008.26 1008.73 1010.90 1011.04 1011.74 1011.17 1010.99 1011.50 1011.96 1012.54 1012.78 1012.84 1012.86 1013.03 1013.39 1013.58 1013.61 1013.58 1013.34 1013.31 1013.26 1013.18 1012.94
1001.51 1000.49 1000.31 999.62 998.80 998.71 998.56 998.75 999.03 999.58 1000.60 1001.79 1003.32 1003.73 1004.51 1005.19 1006.27 1006.74 1006.92 1007.73 1008.66 1009.06 1009.66 1010.90 1011.52 1011.79 1011.74 1012.07 1012.61 1012.98 1012.99 1013.39 1013.39 1013.28 1013.50 1013.89 1014.04 1014.07 1014.09 1014.07 1014.02 1013.95 1013.61 1013.26
1001.37 1000.73 999.94 1000.22 1000.05 999.83 999.18 999.00 999.10 999.33 1000.21 1001.04 1002.55 1004.12 1004.38 1005.27 1006.24 1007.08 1007.51 1008.15 1009.06 1009.91 1010.47 1011.68 1012.20 1012.83 1013.20 1013.62 1013.86 1014.06 1014.22 1014.30 1014.13 1014.31 1014.44 1014.50 1014.40 1014.41 1014.41 1014.26 1013.90 1013.64 1013.39 1013.04
1001.37 1000.25 1000.10 1001.38 1001.10 1000.60 1000.43 999.90 999.34 999.24 999.71 1000.58 1002.54 1004.05 1005.08 1006.21 1006.82 1007.29 1007.86 1008.62 1009.68 1010.67 1011.72 1012.73 1013.46 1014.24 1014.85 1015.07 1015.17 1015.25 1015.29 1015.21 1015.13 1015.30 1015.11 1015.10 1015.12 1015.09 1014.89 1014.49 1014.06 1013.86 1013.54 1013.08
1000.64 1000.58 1001.08 1002.29 1001.77 1001.82 1001.16 1000.24 999.61 999.63 1000.54 1000.87 1002.72 1003.85 1005.34 1006.51 1007.47 1008.33 1009.04 1009.31 1010.83 1012.09 1013.23 1014.16 1014.62 1015.35 1015.79 1015.83 1015.92 1015.92 1015.86 1016.05 1015.81 1015.73 1015.66 1015.66 1015.41 1015.32 1015.02 1014.54 1014.09 1013.76 1013.31 1012.94
1000.94 1000.87 1001.57 1002.30 1002.62 1001.93 1001.07 1000.87 1000.12 999.81 1002.09 1002.40 1003.31 1005.14 1006.55 1007.42 1007.84 1010.30 1010.69 1010.95 1012.02 1013.23 1014.20 1014.91 1015.35 1016.17 1016.77 1016.76 1016.54 1016.44 1016.66 1016.70 1016.34 1016.28 1016.29 1015.90 1015.64 1015.38 1014.91 1014.42 1013.92 1013.45 1012.95 1012.50
1001.13 1001.28 1001.45 1002.29 1002.48 1002.33 1001.51 1001.17 1000.96 1000.57 1002.38 1003.22 1004.33 1005.66 1006.00 1006.83 1009.03 1011.66 1012.12 1012.14 1013.12 1014.07 1014.80 1015.34 1016.42 1016.64 1016.72 1017.24 1017.23 1017.45 1017.58 1017.62 1017.54 1016.90 1016.40 1015.99 1015.60 1015.20 1014.63 1014.21 1013.71 1013.19 1012.70 1012.19
1001.02 1001.43 1001.57 1002.19 1002.68 1002.45 1001.91 1001.62 1001.10 1002.21 1003.55 1004.21 1004.49 1005.77 1006.50 1007.87 1009.55 1011.51 1012.47 1013.11 1013.58 1014.24 1014.97 1015.90 1016.73 1017.39 1017.80 1018.15 1018.21 1018.24 1018.26 1017.79 1017.37 1016.81 1016.29 1015.85 1015.39 1014.97 1014.34 1013.81 1013.45 1012.97 1012.44 1011.81
999.71 1000.65 1001.57 1002.34 1002.66 1002.16 1001.26 1001.92 1002.36 1003.44 1004.04 1004.48 1005.63 1006.38 1007.65 1009.30 1011.16 1012.30 1013.05 1013.72 1014.52 1015.25 1016.14 1016.91 1017.43 1017.97 1018.48 1018.42 1018.21 1018.33 1018.19 1018.04 1017.44 1016.72 1016.12 1015.65 1015.25 1014.79 1014.29 1013.79 1013.27 1012.86 1012.32 1011.77
1000.58 999.96 1000.69 1001.89 1002.65 1002.35 1001.17 1001.84 1003.21 1003.55 1004.60 1005.89 1006.63 1008.01 1008.62 1010.50 1011.90 1012.85 1013.73 1014.45 1015.19 1015.96 1016.71 1017.21 1017.74 1018.57 1018.93 1018.95 1018.82 1018.80 1018.50 1017.97 1017.44 1016.94 1016.46 1015.96 1015.45 1015.00 1014.42 1013.89 1013.42 1012.94 1012.47 1012.01
1000.00 999.74 1001.15 1001.59 1003.88 1002.90 1003.20 1004.04 1004.53 1005.13 1006.01 1007.10 1007.93 1008.97 1010.12 1011.32 1012.53 1013.57 1014.34 1015.20 1015.85 1016.46 1017.17 1017.72 1018.33 1018.94 1019.28 1019.15 1018.97 1018.84 1018.57 1018.08 1017.64 1017.20 1016.78 1016.29 1015.76 1015.19 1014.59 1014.11 1013.64 1013.16 1012.68 1012.27
1000.72 1001.13 1002.29 1003.71 1004.32 1004.35 1005.11 1005.34 1005.97 1006.89 1007.67 1008.73 1009.89 1010.59 1011.49 1012.42 1013.63 1014.35 1015.40 1016.17 1016.77 1017.09 1017.75 1018.30 1018.86 1019.24 1019.42 1019.32 1019.19 1018.92 1018.61 1018.28 1017.96 1017.55 1017.06 1016.65 1016.16 1015.56 1014.91 1014.32 1013.81 1013.43 1012.90 1012.66
1001.60 1002.02 1002.31 1003.77 1004.41 1004.85 1006.62 1006.86 1007.09 1008.12 1009.38 1010.28 1011.05 1012.27 1013.13 1013.54 1014.62 1015.38 1016.37 1017.00 1017.47 1017.81 1018.43 1019.00 1019.38 1019.51 1019.58 1019.43 1019.21 1018.94 1018.60 1018.49 1018.28 1017.82 1017.41 1017.13 1016.64 1015.96 1015.37 1014.78 1014.02 1013.54 1013.27 1012.70
Wind_Speed
11 13 21 20 16 8 8 9 8 5 9 8 13 14 11 13 7 10 9 9 10 10 14 7 15 17 15 13 14 15 16 14 9 5 5 4 6 4 3 3 5 3 5 7
8 20 11 11 13 15 10 12 11 7 6 7 12 14 16 14 10 14 16 11 11 8 7 7 16 17 19 18 14 15 17 20 14 5 4 4 4 3 3 5 8 11 10 12
21 7 16 16 13 14 13 14 7 10 4 10 5 12 15 11 17 15 12 10 8 12 11 9 14 17 15 18 17 16 16 16 11 6 3 2 2 3 3 3 2 2 3 4
17 21 24 13 17 13 16 9 13 19 7 7 6 11 7 11 12 7 9 8 10 11 6 9 13 14 17 15 14 12 14 14 8 9 6 1 2 2 3 3 3 4 4 1
20 20 25 21 24 18 12 12 16 17 12 5 18 1 8 4 4 7 9 9 9 11 11 12 16 18 17 14 12 10 8 8 9 8 4 4 3 1 2 3 7 5 4 6
21 12 22 26 15 20 13 10 12 13 9 8 14 7 7 5 6 6 7 14 11 10 8 12 16 17 9 9 9 7 7 4 6 5 6 8 7 7 5 4 5 3 3 4
16 19 16 13 21 17 21 10 5 5 5 7 10 5 9 4 4 7 9 8 9 8 10 14 15 13 12 13 12 10 11 8 8 9 7 6 8 7 8 6 5 5 3 3
16 13 26 20 18 15 16 16 7 8 6 6 4 4 6 6 5 7 5 12 7 6 12 15 16 14 15 14 13 12 12 11 9 9 9 8 8 5 5 5 5 5 4 3
12 13 5 22 18 16 13 11 11 4 3 5 2 1 7 12 14 13 11 14 10 13 16 20 17 16 15 14 10 12 11 7 8 7 8 7 6 8 6 6 6 4 3 3
4 6 17 15 10 18 17 6 7 3 7 4 0 3 2 8 9 12 17 17 15 16 14 17 18 18 15 13 10 7 7 8 7 8 7 6 7 6 6 5 6 4 3 3
2 2 2 4 4 15 7 15 4 7 7 6 4 3 6 5 5 14 13 18 18 17 15 13 14 16 14 10 10 8 8 8 8 8 6 7 6 6 6 6 3 2 1 0
9 1 4 5 6 1 2 3 6 8 4 2 5 5 2 4 11 19 14 15 18 19 15 11 8 7 11 12 12 12 11 11 8 7 7 7 7 6 5 2 1 1 2 2
10 6 5 3 4 3 4 4 4 6 5 4 7 5 2 10 13 15 20 17 16 20 17 14 9 9 11 14 14 12 11 9 7 7 7 7 7 6 6 6 7 6 6 5
2 4 4 7 2 4 5 2 2 6 6 6 4 6 1 6 14 12 18 18 17 17 22 12 10 7 10 13 12 11 10 7 6 7 7 7 7 6 6 7 7 7 7 7
1 4 5 3 2 7 4 10 7 5 8 8 8 11 7 8 12 15 18 18 19 18 16 12 12 9 11 12 11 10 10 9 7 8 9 8 7 7 6 6 6 5 5 5
3 4 13 5 11 7 2 1 3 3 7 11 15 7 3 9 10 9 12 16 16 17 17 15 14 13 13 11 10 10 10 9 8 9 8 8 8 7 6 6 6 6 6 6
4 3 5 5 4 1 1 1 2 6 13 20 14 7 7 14 13 13 15 14 18 17 16 15 15 13 10 9 8 9 7 6 9 8 8 8 8 7 6 6 6 6 7 6
4 2 3 4 3 4 2 3 4 12 6 14 18 13 11 15 12 12 14 20 18 16 15 13 11 10 8 8 8 6 8 8 7 8 7 7 7 8 8 6 6 6 5 6
2 2 5 5 2 2 3 4 5 19 6 13 25 21 22 22 27 16 14 16 17 16 12 11 10 9 7 8 8 9 10 8 9 8 6 7 7 8 8 7 7 8 9 8
4 1 4 3 5 3 2 3 7 4 4 7 24 22 24 20 15 8 12 16 16 13 11 13 11 10 13 11 10 10 9 7 7 8 8 8 8 8 9 8 9 8 8 9
4 4 5 4 5 4 12 11 3 8 6 18 21 17 13 9 10 15 14 13 14 12 14 12 11 10 8 6 6 8 8 9 9 9 8 7 6 7 8 8 8 9 9 9
3 5 3 5 3 3 10 9 7 6 8 17 15 21 24 22 17 14 14 14 13 13 11 10 9 8 6 6 7 8 9 8 9 10 9 9 9 8 8 9 8 8 8 8
1 4 6 3 4 1 13 21 15 19 21 19 23 20 23 20 17 15 13 13 11 11 9 7 9 7 5 4 4 5 8 11 12 12 10 9 9 8 8 8 8 7 7 6
8 9 11 12 8 19 21 17 18 20 21 18 19 20 19 19 16 15 14 12 11 10 8 6 8 6 4 2 4 2 3 8 11 10 9 8 8 10 8 6 6 6 6 6
2 6 14 19 17 21 18 20 21 21 21 21 18 18 18 18 15 15 12 11 9 8 6 6 7 6 4 3 2 3 4 7 10 8 8 8 7 8 9 8 7 6 6 6
3 12 10 13 11 20 15 17 22 22 19 19 21 17 15 18 15 14 10 8 8 8 7 8 6 6 4 4 5 5 5 7 9 8 7 7 7 7 7 8 8 8 6 11
Wind_Direction
194 196 206 211 217 227 223 219 235 220 228 237 244 255 235 250 224 236 234 237 237 233 232 168 153 152 147 152 157 159 160 168 160 172 162 180 186 203 188 188 201 199 170 162
221 219 201 205 200 203 212 234 244 287 266 219 249 250 239 232 228 226 227 223 221 223 204 145 145 150 158 159 168 174 173 176 186 164 158 157 168 209 206 174 183 179 190 183
215 216 200 202 212 210 220 227 227 238 302 271 270 266 253 248 227 228 227 220 207 202 193 145 155 157 151 158 173 179 182 178 177 172 148 155 171 133 144 175 167 103 193 197
227 232 197 201 217 207 229 212 233 252 249 251 163 270 227 210 203 201 219 224 221 191 197 146 151 154 159 173 177 167 174 171 163 185 188 176 112 154 217 133 112 171 216 218
207 199 218 211 213 206 232 219 227 243 249 251 273 212 267 142 238 256 251 214 207 186 178 157 161 155 171 164 174 157 152 146 170 186 165 152 168 100 134 119 141 173 168 182
219 200 201 226 218 218 217 230 233 247 242 245 250 162 282 190 184 267 274 198 188 187 155 148 163 150 112 110 119 121 118 105 111 146 142 160 169 145 129 119 111 121 76 67
213 219 226 203 224 224 212 203 239 219 204 216 229 142 227 235 258 251 187 174 190 200 124 141 142 122 116 113 101 104 105 84 85 86 81 101 107 106 116 118 103 92 78 58
212 214 211 217 207 204 214 196 162 186 161 193 203 193 251 238 325 25 251 157 132 110 126 130 132 124 119 104 99 104 103 95 85 86 78 73 58 78 84 103 100 103 102 103
189 222 175 216 226 210 218 197 198 150 158 89 243 114 13 27 20 39 56 46 32 106 120 121 112 102 98 99 99 100 94 91 87 89 84 76 77 77 81 65 80 92 99 113
283 207 229 242 240 226 207 200 162 291 132 161 303 73 141 18 29 42 57 51 47 65 79 105 106 107 101 100 102 95 95 97 97 83 76 85 93 89 85 68 68 63 51 50
267 32 6 47 116 226 220 212 188 126 125 145 130 238 184 143 96 77 63 68 60 61 61 64 92 102 108 115 115 106 93 97 88 88 86 78 67 62 58 65 69 88 106 219
205 305 179 204 278 329 187 124 148 161 169 157 151 243 176 150 113 100 76 76 78 69 57 46 35 83 90 82 79 84 80 73 70 75 73 65 60 60 65 63 340 255 257 270
164 206 120 46 324 216 205 128 123 116 114 184 135 245 4 120 114 111 106 104 96 87 74 47 39 45 81 81 74 67 63 71 71 72 69 53 41 30 10 359 354 342 326 316
21 186 155 177 127 123 131 129 252 151 102 157 170 151 188 91 126 126 115 112 107 112 111 127 79 74 65 72 71 69 59 50 53 60 57 46 32 31 29 29 24 20 11 13
291 196 164 114 129 132 146 209 220 177 170 149 182 147 170 158 141 148 140 129 138 135 133 117 107 92 71 62 58 54 52 37 29 42 42 38 32 36 30 28 16 358 0 343
219 248 158 102 81 39 158 237 326 182 112 98 127 87 160 109 106 120 132 134 128 123 107 103 88 71 64 56 50 41 37 33 37 46 44 35 26 17 9 358 351 347 336 326
220 242 92 118 18 357 192 265 284 132 147 139 141 146 117 123 139 150 142 119 112 107 103 92 80 73 61 55 46 45 35 27 50 39 32 24 10 354 341 330 332 326 316 308
236 85 69 121 83 175 167 268 253 105 96 111 112 116 114 103 95 92 96 109 105 95 90 83 84 77 56 46 44 44 36 43 39 31 18 2 355 340 328 316 311 301 297 307
225 101 98 107 94 319 125 14 111 119 90 114 117 120 118 112 90 70 88 96 103 102 97 92 83 79 71 53 42 41 36 25 18 8 349 345 330 323 314 306 314 315 311 306
159 228 108 108 96 96 304 182 202 153 51 151 134 138 134 123 101 121 112 107 104 106 106 97 84 69 53 34 36 39 23 10 348 338 334 330 326 318 315 315 316 312 310 305
175 157 104 109 100 199 106 149 187 74 202 148 133 134 114 95 105 123 116 105 105 103 96 88 77 78 72 59 61 52 29 8 336 324 325 316 315 313 310 317 316 313 312 310
75 115 101 85 121 89 107 121 170 167 97 111 100 108 102 106 112 115 109 107 107 106 101 103 100 85 72 62 47 39 24 350 342 336 334 334 329 333 330 320 318 323 320 319
191 160 128 101 110 5 72 107 107 111 110 113 112 113 113 115 114 109 100 96 94 105 104 98 96 94 73 65 61 45 13 360 351 350 344 339 341 337 332 333 327 325 324 326
60 42 108 89 69 88 92 86 93 103 107 106 103 109 109 110 106 101 96 94 91 90 93 97 95 98 98 66 52 84 334 3 359 350 348 347 343 342 339 335 330 328 330 330
89 108 106 100 102 90 84 93 100 95 97 97 96 106 109 107 102 104 99 97 98 97 89 84 99 97 94 72 27 326 339 18 5 353 353 351 345 348 345 341 336 333 323 327
49 135 120 122 110 106 108 104 104 101 105 107 107 95 92 103 105 102 99 102 101 88 81 86 86 86 62 56 19 18 20 45 11 3 360 357 350 349 349 344 341 341 319 323